Willimantic, CT

5:55 AM EDT on March 30, 2017 (GMT -0400)
Windham

Weather History for KIJD - September, 2012

Change the Weather History Date:

Saturday, September 22, 2012

  Actual Average Record
Temperature  
Mean Temperature 62 °F -  
Max Temperature 75 °F 70 °F 88 °F (1965)
Min Temperature 48 °F 48 °F 25 °F (1962)
Degree Days  
Heating Degree Days 4    
Growing Degree Days 12 (Base 50)    
Moisture  
Dew Point 54 °F    
Average Humidity 83    
Maximum Humidity 94    
Minimum Humidity 53    
Precipitation  
Precipitation 0.00 in - - ()
Sea Level Pressure  
Sea Level Pressure 29.95 in    
Wind  
Wind Speed 3 mph (West)    
Max Wind Speed 13 mph    
Max Gust Speed 21 mph    
Visibility 7 miles    
Events Fog    
Averages and records for this station are not official NWS values.
T = Trace of Precipitation, MM = Missing Value Source: NWS Daily Summary

Daily Weather History Graph

Daily Weather History Graph

Search for Another Location

Airport or City:

Trip Planner

Search our weather history database for the weather conditions in past years. The results will help you decide how hot, cold, wet, or windy it might be!

Date:

Astronomy

Sep. 22, 2012 Rise Set
Actual Time 6:36 AM EDT 6:45 PM EDT
Civil Twilight 6:08 AM EDT 7:12 PM EDT
Nautical Twilight 5:36 AM EDT 7:45 PM EDT
Astronomical Twilight 5:03 AM EDT 8:18 PM EDT
Moon 1:57 PM EDT (9/22) 11:41 PM EDT (9/22)
Length of Visible Light 13h 04m
Length of Day
12h 08m
Waxing Crescent, 48% of the Moon is Illuminated
Sep 22
Waxing Crescent
Sep 22
First Quarter
Sep 29
Full
Oct 8
Last Quarter
Oct 15
New

Hourly Weather History & Observations

Time (EDT) Temp. Dew Point Humidity Pressure Visibility Wind Dir Wind Speed Gust Speed Precip Events Conditions
12:52 AM 51.1 °F 46.9 °F 86% 30.03 in 10.0 mi Calm Calm - N/A   Clear
1:52 AM 48.9 °F 46.0 °F 90% 30.02 in 10.0 mi Calm Calm - N/A   Partly Cloudy
2:05 AM 50.0 °F 46.4 °F 87% 30.02 in 10.0 mi Calm Calm - N/A   Mostly Cloudy
2:42 AM 51.8 °F 48.2 °F 88% 30.01 in 3.0 mi North 3.5 mph - N/A   Overcast
2:50 AM 51.8 °F 50.0 °F 94% 30.01 in 2.0 mi NNW 3.5 mph - N/A   Overcast
2:52 AM 52.0 °F 50.0 °F 93% 30.01 in 2.0 mi NNW 3.5 mph - N/A   Overcast
3:19 AM 53.6 °F 50.0 °F 88% 30.01 in 4.0 mi North 4.6 mph - N/A   Overcast
3:52 AM 54.0 °F 51.1 °F 90% 30.00 in 8.0 mi NNW 3.5 mph - N/A   Overcast
4:03 AM 53.6 °F 51.8 °F 94% 30.00 in 10.0 mi NNW 4.6 mph - N/A   Overcast
4:52 AM 54.0 °F 51.1 °F 90% 30.00 in 8.0 mi North 4.6 mph - N/A   Overcast
5:29 AM 53.6 °F 51.8 °F 94% 30.00 in 2.5 mi NNW 4.6 mph - N/A   Overcast
5:41 AM 53.6 °F 51.8 °F 94% 30.00 in 1.5 mi NNW 3.5 mph - N/A   Overcast
5:52 AM 54.0 °F 52.0 °F 93% 30.00 in 1.2 mi NNW 4.6 mph - N/A   Overcast
6:31 AM 53.6 °F 51.8 °F 94% 30.01 in 2.5 mi NNW 4.6 mph - N/A   Overcast
6:52 AM 54.0 °F 51.1 °F 90% 30.00 in 1.8 mi NW 5.8 mph - N/A   Overcast
7:31 AM 53.6 °F 51.8 °F 94% 30.01 in 0.8 mi NNW 4.6 mph - N/A   Overcast
7:52 AM 54.0 °F 51.1 °F 90% 30.01 in 0.5 mi NNW 3.5 mph - N/A Fog Fog
8:20 AM 53.6 °F 51.8 °F 94% 30.00 in 0.2 mi NNW 4.6 mph - N/A Fog Fog
8:36 AM 53.6 °F 51.8 °F 94% 30.00 in 0.5 mi Calm Calm - N/A Fog Fog
9:13 AM 53.6 °F 51.8 °F 94% 30.00 in 1.0 mi Calm Calm - N/A   Overcast
9:32 AM 55.4 °F 53.6 °F 94% 29.99 in 3.0 mi Calm Calm - N/A   Overcast
9:52 AM 54.0 °F 52.0 °F 93% 29.99 in 9.0 mi Calm Calm - N/A   Overcast
10:27 AM 57.2 °F 53.6 °F 88% 29.98 in 10.0 mi Calm Calm - N/A   Overcast
10:52 AM 61.0 °F 54.0 °F 78% 29.97 in 10.0 mi Calm Calm - N/A   Mostly Cloudy
11:01 AM 62.6 °F 53.6 °F 72% 29.96 in 10.0 mi SSW 3.5 mph - N/A   Partly Cloudy
11:52 AM 64.9 °F 55.0 °F 70% 29.94 in 10.0 mi WSW 3.5 mph - N/A   Clear
12:52 PM 69.1 °F 55.9 °F 63% 29.92 in 10.0 mi South 6.9 mph - N/A   Clear
1:52 PM 73.9 °F 55.9 °F 53% 29.88 in 10.0 mi South 11.5 mph - N/A   Clear
2:52 PM 75.0 °F 57.0 °F 53% 29.87 in 10.0 mi South 12.7 mph 17.3 mph N/A   Clear
4:52 PM 71.1 °F 57.0 °F 61% 29.88 in 10.0 mi South 8.1 mph - N/A   Partly Cloudy
5:32 PM 69.8 °F 55.4 °F 60% 29.88 in 10.0 mi South 9.2 mph - N/A   Mostly Cloudy
5:52 PM 69.1 °F 55.9 °F 63% 29.88 in 10.0 mi South 5.8 mph - N/A   Mostly Cloudy
6:52 PM 66.9 °F 57.0 °F 70% 29.88 in 10.0 mi SSE 5.8 mph - N/A   Overcast
7:52 PM 66.0 °F 57.9 °F 75% 29.87 in 10.0 mi Calm Calm - N/A   Overcast
8:52 PM 64.9 °F 59.0 °F 81% 29.85 in 10.0 mi Calm Calm - N/A   Overcast
9:52 PM 66.0 °F 61.0 °F 84% 29.84 in 10.0 mi SSW 4.6 mph - N/A   Overcast
10:52 PM 69.1 °F 64.0 °F 84% 29.83 in 10.0 mi South 6.9 mph - N/A   Overcast
11:38 PM 71.6 °F 64.4 °F 78% 29.82 in 10.0 mi South 11.5 mph 20.7 mph N/A   Overcast
11:52 PM 71.1 °F 64.9 °F 81% 29.81 in 10.0 mi South 12.7 mph - N/A   Overcast